Погода в Яксе

Погода в Яксе : погода сейчас, прогноз погоды и архив. Всё, что Вы хотите узнать о погоде в Яксе!

Поиск расширенной информации на нашем сайте:

Другие новости

Новости СМИ2

Главная страница сайта

Новости сайта

03.07.2017

Напоминаем, что на нашем специализированном сайте Метеоцентр.Азия вы можете получить высокодетализированные автоматические прогнозы погоды по пунктам России, СНГ и мира в авиационном формате (включающие направление и скорость ветра, видимость, явления погоды, количество и форму облачности, нижнюю и верхнюю границу облачности).

Рекомендуем: Очень выгодно - історія Дніпропетровська - честные цены!

Погода в Яксе - сегодня

Время (UTC), дата Ветер
(°,м/с) 
Видим.   Явления Облачность Т
(°С)
Тd
(°С)
f(%) Тe
(°С)
Pmin
(гПа)
dP
(гПа)
Po
(мм)
O2
(г/м3)
Тmin Tmax R s Состояние
почвы
03 18.08.17 тихо ()   10 км    10/4 1000 м средняя 
[Sc|Ac As]
+8.1 +6.9 92 +8  1027.4  -0.5  758  296  +4        влажная 
06 18.08.17 220 (ЮЗ) 10 км    9/0 средняя 
[Ac trans]
+13.8 +7.1 64 +14  1026.9  -0.2  758  290           
09 18.08.17 210 (ЮЗ) 10 км  {ливн. осадки}  3/0 средняя 
[Ac trans]
+17.7 +9.5 59 +18  1025.8  -0.9  758  285           
12 18.08.17 230 (ЮЗ) 10 км  {ливн. осадки}  9/3 600 м средняя 
[Cu hum|Ac trans]
+19.5 +11.2 59 +24  1023.4  -2.3  756  282           
15 18.08.17 250 (З) 10 км    8/3 600 м кучево-дожд., средняя, верхняя 
[Cb cap|Ac trans|Ci fib]
+18.2 +11.2 64 +23  1021.7  -1.6  755  283    +19.6  0.5     
18 18.08.17 250 (З) 10 км    8/0 средняя, верхняя 
[Ac trans|Ci sp]
+13.4 +12.2 92 +19  1022.3  0.3  755  288           
21 18.08.17 250 (З) 10 км    3/0 верхняя 
[Ci sp]
+11.4 +10.8 96 +15  1022  -0.4  755  290           
00 19.08.17 240 (ЮЗ) 10 км    4/0 верхняя 
[Ci sp]
+10.9 +10.6 98 +14  1021.4  -0.7  754  290           
03 19.08.17 240 (ЮЗ) 10 км    9/3 600 м кучево-дожд., средняя, верхняя 
[Cb cap|Ac trans|Cc]
+12.2 +11.7 97 +16  1021.3  0.1  754  289  +10.5        сухая 
06 19.08.17 270 (З) 10 км    9/1 600 м средняя 
[Cu med, cong|Ac trans]
+18.4 +14.1 76 +26  1021  754  282           
09 19.08.17 240 (ЮЗ) 10 км    10/4 600 м кучево-дожд., средняя 
[Cb cap|Ac trans]
+20 +14.4 70 +28  1020.5  -0.4  754  280           
12 19.08.17 210 (ЮЗ) 10 км  гроза, ливневой дождь  9/8 600 м кучево-дожд., средняя 
[Cb cap|Ac trans]
+19 +14.6 76 +28  1020.2  -0.4  754  281           
15 19.08.17 190 (Ю) 10 км  {ливн. осадки}  8/0 средняя 
[Ac trans]
+18.7 +16.1 85 +31  1019.7  -0.5  753  281    +20.8     
18 19.08.17 220 (ЮЗ) 10 км  {ливн. осадки}  3/0 средняя 
[Ac trans]
+15.2 +14.4 95 +25  1019.4  -0.5  753  284           
21 19.08.17 тихо ()   10 км    ясно 
+12.3 +12 98 +16  1018.9  -0.6  752  288           
00 20.08.17 210 (ЮЗ) 10 км    10/10 600 м кучево-дожд. 
[Cb cap]
+14 +13.5 97 +21  1017.9  -0.9  752  285           
03 20.08.17 тихо ()   4000 м  слаб. ливневой дождь  10/10 600 м кучево-дожд. 
[Cb cap]
+14.5 +14.2 98 +22  1017.8  -0.1  752  285  +11.5    0.5    влажная 
06 20.08.17 240 (ЮЗ) 10 км  {ливн. осадки}  10/10 600 м кучево-дожд. 
[Cb cap]
+17 +16 94 +28  1017.2  -0.4  751  282           
09 20.08.17 280 (З) 10 км    9/9 600 м кучево-дожд. 
[Cb cap]
+18.9 +15.3 80 +29  1017.4  0.3  752  280           
12 20.08.17 290 (З) 10 км    10/6 600 м кучево-дожд., верхняя 
[Cb cap|Ci fib]
+21.6 +14.5 64 +29  1017.2  752  278           
15 20.08.17 270 (З) 10 км    8/3 600 м верхняя 
[Cu med, cong|Ci fib]
+20.7 +15.2 71 +30  1017.5  0.2  752  278    +21.8  0.3     
18 20.08.17 250 (З) 10 км    8/0 верхняя 
[Ci fib]
+14.7 +14.2 97 +23  1018.5  0.6  752  285           
21 20.08.17 250 (З) 10 км    6/0 верхняя 
[Ci fib]
+13.9 +13.6 98 +21  1018.7  0.2  752  286           
00 21.08.17 тихо ()   10 км    10/0 средняя, верхняя 
[Ac trans|Ci sp]
+12.8 +12.6 99 +18  1018.4  -0.4  752  287           
03 21.08.17 240 (ЮЗ) 10 км    10/0 верхняя 
[Ci sp]
+16.7 +15.5 93 +27  1018.2  752  282  +12.7        влажная 
Время (UTC), дата Ветер
(°,м/с) 
Видим.   Явления Облачность Т
(°С)
Тd
(°С)
f(%) Тe
(°С)
Pmin
(гПа)
dP
(гПа)
Po
(мм)
O2
(г/м3)
Тmin Tmax R s Состояние
почвы

Для получения пояснительной информации подведите курсор к названию столбца.

ПОГОДА в Яксе - архив

Всё, что Вы хотите узнать о погоде в Яксе - удобно и подробно!

Выберите нужную дату (начиная с 1 января 2015* года) и нажмите кнопку "Найти".
Будут отображены архивные сводки погоды по пункту Якса, начиная с указанной даты.


Отображать данные в формате CSV (для использования в таблицах Excel)


Внимание! Наш архив погоды предназначен исключительно для личного некоммерческого использования в познавательных целях. Если Вам необходимы официальные справки о состоянии погоды (для производственных, юридических, коммерческих и т.п. целей), обращайтесь в органы Росгидромета.

*Примечание: данная дата относится к архиву по метеостанциям СССР (Россия, СНГ, Балтия).
Архив по метеостанциям Зарубежной Европы и Азии (кроме Китая) хранится 10 дней, по другим регионам земного шара (Китай, Африка, Америка, Австралия, Океания) - 1 день.

Якса - район местоположения метеостанции


Название, широта, долгота, высота метеостанции:
Якса 61.8°ш. 56.8°д. 130 м над ур. моря [Российская Федерация]

Дополнительная информация

В oтличие oт бoльшинства пoгoдных сайтoв мы публикуем пoдрoбную метеoинфoрмацию в детальнoм прoфессиoнальнoм фoрмате.

Характеристики температуры и влажнoсти вoздуха измеряются на высoте 2 м в тени вдали oт зданий и деревьев.
Скoрoсть ветра измеряется на высoте 10 м (на урoвне рoста челoвека скoрoсть ветра ниже в 1.5-2 раза). Если метеoстанция нахoдится в гoрoде или в лесу, тo скoрoсть ветра занижена на 2-4 м/с пo сравнению с oткрытым местoм. Скoрoсть ветра над акватoриями крупных рек и oзёр, а также на вершинах хoлмoв на 2-5 м/с выше, чем в oбычных услoвиях.
Атмoсфернoе давление в разных тoчках местнoсти мoжет значительнo oтличаться oт давления на метеoстанции, в зависимoсти oт услoвий рельефа (при пoдъёме на 10 м давление пoнижается примернo на 1 мм рт.ст.).